Regional Weather Roundup
Issued by NWS Northern Indiana

Home | Current Version | Previous Version | Text Only | Print | Product List | Glossary Off
Versions: 1 2 3 4 5 6 7 8 9 10 11 12 13 14 15 16 17 18 19 20 21 22 23 24 25 26 27 28 29 30 31 32 33 34 35 36 37 38 39 40 41 42 43 44 45 46 47 48 49 50

000
ASUS43 KIWX 210000
RWRIWX

KIWX WEATHER ROUNDUP
NATIONAL WEATHER SERVICE NORTHERN INDIANA
800 PM EDT WED AUG 20 2014

NOTE: "FAIR" INDICATES FEW OR NO CLOUDS BELOW 12,000 FEET WITH NO
SIGNIFICANT WEATHER AND/OR OBSTRUCTIONS TO VISIBILITY.

* THESE STATIONS ARE NOT UNDER NWS QUALITY CONTROL. THEY ALSO MAY NOT
  REPORT WEATHER SUCH AS PRECIPITATION OR FOG.

INZ001>027-210100-
NORTHERN INDIANA

CITY           SKY/WX    TMP DP  RH WIND       PRES   REMARKS
VALPARAISO     CLEAR     80  66  62 SW9       29.91R
6HR MIN TEMP:  80; 6HR MAX TEMP:  85;

KNOX*          PTCLDY    79  66  64 W6        29.90R
6HR MIN TEMP:  41; 6HR MAX TEMP:  86;

SOUTH BEND     MOCLDY    81  64  56 W7        29.90R
6HR MIN TEMP:  81; 6HR MAX TEMP:  86;

ELKHART*       CLEAR     81  64  57 CALM      29.90R
GOSHEN         CLEAR     80  66  62 W6        29.89S
6HR MIN TEMP:  76; 6HR MAX TEMP:  86; 6HR PCP: TRACE;

MONTICELLO*    PTCLDY    78  70  77 W7        29.92R
6HR MIN TEMP:  78; 6HR MAX TEMP:  83;

WARSAW*        MOCLDY    81  66  61 SW3       29.90R
ANGOLA*        CLEAR     81  75  83 CALM      29.90R
FORT WAYNE     PTCLDY    77  66  68 W6        29.91R
6HR MIN TEMP:  77; 6HR MAX TEMP:  84;

PERU/GRISSOM   PTCLDY    80  72  78 W9        29.91R
6HR MIN TEMP:  80; 6HR MAX TEMP:  86;


$$
INZ028>050-210100-
CENTRAL INDIANA

CITY           SKY/WX    TMP DP  RH WIND       PRES   REMARKS
LAFAYETTE      PTCLDY    75  67  76 W8        29.93R
6HR MIN TEMP:  75; 6HR MAX TEMP:  80;

KOKOMO*        PTCLDY    81  64  57 W9        29.91F
6HR MIN TEMP:  81; 6HR MAX TEMP:  84;

MUNCIE*        CLEAR     79  63  57 W9        29.93R
6HR MIN TEMP:  79; 6HR MAX TEMP:  84;

INDIANAPOLIS   MOCLDY    76  68  76 SW9       29.93S
6HR MIN TEMP:  74; 6HR MAX TEMP:  81; 6HR PCP: TRACE;


$$
MIZ043>046-050>051-056>058-064>065-071>073-077>080-210100-
SOUTHWEST LOWER MICHIGAN

CITY           SKY/WX    TMP DP  RH WIND       PRES   REMARKS
BATTLE CREEK   CLEAR     78  64  61 N6        29.91S
6HR MIN TEMP:  78; 6HR MAX TEMP:  82;

BENTON HARBOR  CLEAR     77  66  68 CALM      29.89R
6HR MIN TEMP:  77; 6HR MAX TEMP:  83;

COLDWATER*     CLEAR     79  65  63 CALM      29.90S
6HR MIN TEMP:  79; 6HR MAX TEMP:  85;

HILLSDALE*     CLEAR     77  65  65 CALM      29.92R
HOLLAND        CLEAR     77  67  71 CALM      29.90S
6HR MIN TEMP:  77; 6HR MAX TEMP:  81;

GRAND RAPIDS   PTCLDY    77  66  68 W7        29.90S
6HR MIN TEMP:  77; 6HR MAX TEMP:  82;

KALAMAZOO      CLEAR     79  64  60 NW5       29.90R
6HR MIN TEMP:  79; 6HR MAX TEMP:  84;

STURGIS*       CLEAR     79  66  65 CALM      29.89S
THREE RIVERS*  FAIR      79  68  68 CALM      29.90R
6HR MIN TEMP:  79; 6HR MAX TEMP:  83;


$$
OHZ001>008-015>018-024>025-210100-
NORTHWEST OHIO

CITY           SKY/WX    TMP DP  RH WIND       PRES   REMARKS
DEFIANCE       CLEAR     80  67  64 CALM      29.90R
6HR MIN TEMP:  80; 6HR MAX TEMP:  85;

FINDLAY        CLEAR     80  67  64 SW5       29.90S
6HR MIN TEMP:  80; 6HR MAX TEMP:  86;

TOLEDO EXPRESS CLEAR     80  66  62 NW3       29.89R
6HR MIN TEMP:  80; 6HR MAX TEMP:  85; 6HR PCP: TRACE;

TOLEDO METCALF CLEAR     80  65  59 NW6       29.90R
6HR MIN TEMP:  80; 6HR MAX TEMP:  86;

LIMA           CLEAR     80  67  64 CALM      29.91S
6HR MIN TEMP:  80; 6HR MAX TEMP:  84;


$$
&&



USA.gov is the U.S. government's official web portal to all federal, state and local government web resources and services.